Time,TemperatureF,DewpointF,PressureIn,WindDirection,WindDirectionDegrees,WindSpeedMPH,WindSpeedGustMPH,Humidity,HourlyPrecipIn,Conditions,Clouds,dailyrainin,SoftwareType,DateUTC
2013-05-28 00:03:00,53.4,52.0,30.00,SSW,194,4.0,-999.0,93,-99.99,,,0.00,weatherlink.com 1.10,2013-05-28 07:03:00,
2013-05-28 00:18:00,53.3,52.0,30.00,SW,234,6.0,-999.0,94,-99.99,,,0.00,weatherlink.com 1.10,2013-05-28 07:18:00,
2013-05-28 00:33:00,53.3,52.0,30.00,SW,221,2.0,-999.0,94,-99.99,,,0.00,weatherlink.com 1.10,2013-05-28 07:33:00,
2013-05-28 00:48:00,53.2,52.0,29.99,WSW,240,0.0,-999.0,94,-99.99,,,0.00,weatherlink.com 1.10,2013-05-28 07:48:00,
2013-05-28 01:03:00,53.1,52.0,29.98,SSW,203,1.0,-999.0,94,-99.99,,,0.00,weatherlink.com 1.10,2013-05-28 08:03:00,
2013-05-28 01:18:00,53.0,51.0,29.98,SSW,200,0.0,-999.0,94,-99.99,,,0.00,weatherlink.com 1.10,2013-05-28 08:18:00,
2013-05-28 01:33:00,53.0,51.0,29.98,SSW,210,0.0,-999.0,94,-99.99,,,0.00,weatherlink.com 1.10,2013-05-28 08:33:00,
2013-05-28 01:48:00,53.1,52.0,29.98,SSW,213,0.0,-999.0,94,-99.99,,,0.00,weatherlink.com 1.10,2013-05-28 08:48:00,
2013-05-28 02:03:00,53.2,52.0,29.98,SSW,213,0.0,-999.0,94,-99.99,,,0.00,weatherlink.com 1.10,2013-05-28 09:03:00,
2013-05-28 02:18:00,53.2,52.0,29.98,South,190,0.0,-999.0,94,-99.99,,,0.00,weatherlink.com 1.10,2013-05-28 09:18:00,
2013-05-28 02:32:00,53.3,52.0,29.98,South,190,0.0,-999.0,94,-99.99,,,0.00,weatherlink.com 1.10,2013-05-28 09:32:00,
2013-05-28 02:48:00,53.2,52.0,29.98,South,190,0.0,-999.0,94,-99.99,,,0.01,weatherlink.com 1.10,2013-05-28 09:48:00,
2013-05-28 03:03:00,53.4,52.0,29.99,South,190,0.0,-999.0,94,-99.99,,,0.01,weatherlink.com 1.10,2013-05-28 10:03:00,
2013-05-28 03:18:00,53.6,52.0,29.98,South,188,0.0,-999.0,94,-99.99,,,0.01,weatherlink.com 1.10,2013-05-28 10:18:00,
2013-05-28 03:33:00,53.5,52.0,29.97,South,189,0.0,-999.0,94,-99.99,,,0.01,weatherlink.com 1.10,2013-05-28 10:33:00,
2013-05-28 03:48:00,53.5,52.0,29.97,SSW,192,0.0,-999.0,94,-99.99,,,0.01,weatherlink.com 1.10,2013-05-28 10:48:00,
2013-05-28 04:03:00,53.6,52.0,29.96,SW,226,0.0,-999.0,94,-99.99,,,0.01,weatherlink.com 1.10,2013-05-28 11:03:00,
2013-05-28 04:18:00,53.9,53.0,29.97,West,278,5.0,-999.0,95,-99.99,,,0.01,weatherlink.com 1.10,2013-05-28 11:18:00,
2013-05-28 04:33:00,54.6,53.0,29.98,NW,306,0.0,-999.0,95,-99.99,,,0.01,weatherlink.com 1.10,2013-05-28 11:33:00,
2013-05-28 04:48:00,54.8,53.0,29.96,WNW,297,0.0,-999.0,94,-99.99,,,0.01,weatherlink.com 1.10,2013-05-28 11:48:00,
2013-05-28 05:03:00,54.9,53.0,29.96,WSW,252,2.0,-999.0,94,-99.99,,,0.01,weatherlink.com 1.10,2013-05-28 12:03:00,
2013-05-28 05:18:00,55.1,54.0,29.95,WSW,248,0.0,-999.0,94,-99.99,,,0.01,weatherlink.com 1.10,2013-05-28 12:18:00,
2013-05-28 05:33:00,54.7,53.0,29.96,WSW,248,0.0,-999.0,93,-99.99,,,0.01,weatherlink.com 1.10,2013-05-28 12:33:00,
2013-05-28 05:48:00,54.4,53.0,29.96,WSW,248,0.0,-999.0,93,-99.99,,,0.01,weatherlink.com 1.10,2013-05-28 12:48:00,
2013-05-28 06:03:00,54.4,53.0,29.96,WSW,248,0.0,-999.0,94,-99.99,,,0.01,weatherlink.com 1.10,2013-05-28 13:03:00,
2013-05-28 06:18:00,54.5,53.0,29.95,ENE,75,0.0,-999.0,94,-99.99,,,0.01,weatherlink.com 1.10,2013-05-28 13:18:00,
2013-05-28 06:32:00,54.1,53.0,29.97,WNW,295,0.0,-999.0,94,-99.99,,,0.01,weatherlink.com 1.10,2013-05-28 13:32:00,
2013-05-28 06:48:00,54.0,52.0,29.96,ENE,65,0.0,-999.0,94,-99.99,,,0.01,weatherlink.com 1.10,2013-05-28 13:48:00,
2013-05-28 07:03:00,54.1,53.0,29.97,ENE,65,0.0,-999.0,94,-99.99,,,0.01,weatherlink.com 1.10,2013-05-28 14:03:00,
2013-05-28 07:18:00,54.4,53.0,29.97,ENE,65,0.0,-999.0,94,-99.99,,,0.01,weatherlink.com 1.10,2013-05-28 14:18:00,
2013-05-28 07:33:00,54.7,53.0,29.97,ENE,66,0.0,-999.0,94,-99.99,,,0.01,weatherlink.com 1.10,2013-05-28 14:33:00,
2013-05-28 07:48:00,54.8,53.0,29.97,ENE,67,0.0,-999.0,94,-99.99,,,0.01,weatherlink.com 1.10,2013-05-28 14:48:00,
2013-05-28 08:03:00,55.4,54.0,29.97,ENE,68,0.0,-999.0,94,-99.99,,,0.01,weatherlink.com 1.10,2013-05-28 15:03:00,
2013-05-28 08:18:00,55.9,54.0,29.97,ENE,74,0.0,-999.0,94,-99.99,,,0.01,weatherlink.com 1.10,2013-05-28 15:18:00,
2013-05-28 08:33:00,56.2,55.0,29.98,ENE,75,0.0,-999.0,94,-99.99,,,0.01,weatherlink.com 1.10,2013-05-28 15:33:00,
2013-05-28 08:48:00,56.8,55.0,29.98,East,101,0.0,-999.0,94,-99.99,,,0.01,weatherlink.com 1.10,2013-05-28 15:48:00,
2013-05-28 09:03:00,56.5,55.0,29.98,South,178,1.0,-999.0,93,-99.99,,,0.01,weatherlink.com 1.10,2013-05-28 16:03:00,
2013-05-28 09:18:00,56.7,55.0,29.99,South,190,0.0,-999.0,94,-99.99,,,0.01,weatherlink.com 1.10,2013-05-28 16:18:00,
2013-05-28 09:33:00,57.6,56.0,29.99,SSW,203,0.0,-999.0,93,-99.99,,,0.01,weatherlink.com 1.10,2013-05-28 16:33:00,
2013-05-28 09:48:00,58.2,56.0,29.99,SSW,207,1.0,-999.0,93,-99.99,,,0.01,weatherlink.com 1.10,2013-05-28 16:48:00,
2013-05-28 10:03:00,59.0,57.0,29.98,SSW,209,0.0,-999.0,93,-99.99,,,0.01,weatherlink.com 1.10,2013-05-28 17:03:00,
2013-05-28 10:18:00,59.9,57.0,29.98,NW,315,0.0,-999.0,89,-99.99,,,0.01,weatherlink.com 1.10,2013-05-28 17:18:00,
2013-05-28 10:32:00,61.1,56.0,29.98,NW,309,7.0,-999.0,83,-99.99,,,0.01,weatherlink.com 1.10,2013-05-28 17:32:00,
2013-05-28 10:48:00,62.4,55.0,29.98,WNW,286,7.0,-999.0,78,-99.99,,,0.01,weatherlink.com 1.10,2013-05-28 17:48:00,
2013-05-28 11:03:00,64.1,56.0,29.98,WNW,291,3.0,-999.0,74,-99.99,,,0.01,weatherlink.com 1.10,2013-05-28 18:03:00,
2013-05-28 11:18:00,64.2,56.0,29.98,West,277,0.0,-999.0,74,-99.99,,,0.01,weatherlink.com 1.10,2013-05-28 18:18:00,
2013-05-28 11:32:00,65.2,56.0,29.98,SW,219,1.0,-999.0,73,-99.99,,,0.01,weatherlink.com 1.10,2013-05-28 18:32:00,
2013-05-28 11:47:00,66.0,56.0,29.98,SSW,193,0.0,-999.0,70,-99.99,,,0.01,weatherlink.com 1.10,2013-05-28 18:47:00,
2013-05-28 12:02:00,65.5,55.0,29.99,NW,304,6.0,-999.0,69,-99.99,,,0.01,weatherlink.com 1.10,2013-05-28 19:02:00,
2013-05-28 12:17:00,63.9,54.0,29.99,WNW,292,5.0,-999.0,71,-99.99,,,0.01,weatherlink.com 1.10,2013-05-28 19:17:00,
2013-05-28 12:32:00,64.0,54.0,29.98,WNW,290,12.0,-999.0,69,-99.99,,,0.01,weatherlink.com 1.10,2013-05-28 19:32:00,
2013-05-28 12:47:00,64.3,53.0,29.98,West,269,3.0,-999.0,67,-99.99,,,0.01,weatherlink.com 1.10,2013-05-28 19:47:00,
2013-05-28 13:02:00,65.1,53.0,29.97,SW,234,0.0,-999.0,65,-99.99,,,0.01,weatherlink.com 1.10,2013-05-28 20:02:00,
2013-05-28 13:17:00,66.8,52.0,29.98,NW,306,10.0,-999.0,60,-99.99,,,0.01,weatherlink.com 1.10,2013-05-28 20:17:00,
2013-05-28 13:32:00,67.8,54.0,29.98,WSW,244,7.0,-999.0,61,-99.99,,,0.01,weatherlink.com 1.10,2013-05-28 20:32:00,
2013-05-28 13:47:00,69.1,54.0,29.97,West,271,9.0,-999.0,60,-99.99,,,0.01,weatherlink.com 1.10,2013-05-28 20:47:00,
2013-05-28 14:02:00,68.4,54.0,29.97,West,264,4.0,-999.0,60,-99.99,,,0.01,weatherlink.com 1.10,2013-05-28 21:02:00,
2013-05-28 14:17:00,69.8,55.0,29.97,West,261,3.0,-999.0,60,-99.99,,,0.01,weatherlink.com 1.10,2013-05-28 21:17:00,
2013-05-28 14:32:00,69.4,53.0,29.97,West,269,11.0,-999.0,57,-99.99,,,0.01,weatherlink.com 1.10,2013-05-28 21:32:00,
2013-05-28 14:47:00,67.9,53.0,29.97,WSW,254,3.0,-999.0,60,-99.99,,,0.01,weatherlink.com 1.10,2013-05-28 21:47:00,
2013-05-28 15:02:00,68.8,53.0,29.97,West,267,12.0,-999.0,58,-99.99,,,0.01,weatherlink.com 1.10,2013-05-28 22:02:00,
2013-05-28 15:17:00,69.2,54.0,29.96,SW,229,2.0,-999.0,58,-99.99,,,0.01,weatherlink.com 1.10,2013-05-28 22:17:00,
2013-05-28 15:32:00,68.4,54.0,29.96,WNW,295,4.0,-999.0,60,-99.99,,,0.01,weatherlink.com 1.10,2013-05-28 22:32:00,
2013-05-28 15:47:00,68.8,54.0,29.96,ENE,72,0.0,-999.0,60,-99.99,,,0.01,weatherlink.com 1.10,2013-05-28 22:47:00,
2013-05-28 16:02:00,69.4,54.0,29.95,NW,306,0.0,-999.0,58,-99.99,,,0.01,weatherlink.com 1.10,2013-05-28 23:02:00,
2013-05-28 16:17:00,70.0,54.0,29.94,WNW,284,2.0,-999.0,58,-99.99,,,0.01,weatherlink.com 1.10,2013-05-28 23:17:00,
2013-05-28 16:32:00,69.2,54.0,29.94,WSW,246,9.0,-999.0,58,-99.99,,,0.01,weatherlink.com 1.10,2013-05-28 23:32:00,
2013-05-28 16:47:00,68.3,54.0,29.94,West,275,11.0,-999.0,60,-99.99,,,0.01,weatherlink.com 1.10,2013-05-28 23:47:00,
2013-05-28 17:02:00,67.7,53.0,29.94,West,265,8.0,-999.0,60,-99.99,,,0.01,weatherlink.com 1.10,2013-05-29 00:02:00,
2013-05-28 17:17:00,67.1,53.0,29.94,WNW,290,4.0,-999.0,61,-99.99,,,0.01,weatherlink.com 1.10,2013-05-29 00:17:00,
2013-05-28 17:32:00,67.7,54.0,29.92,West,269,2.0,-999.0,61,-99.99,,,0.01,weatherlink.com 1.10,2013-05-29 00:32:00,
2013-05-28 17:47:00,68.0,53.0,29.92,WNW,287,14.0,-999.0,60,-99.99,,,0.01,weatherlink.com 1.10,2013-05-29 00:47:00,
2013-05-28 18:02:00,67.0,52.0,29.92,WNW,284,9.0,-999.0,60,-99.99,,,0.01,weatherlink.com 1.10,2013-05-29 01:02:00,
2013-05-28 18:17:00,66.1,53.0,29.92,NW,306,10.0,-999.0,62,-99.99,,,0.01,weatherlink.com 1.10,2013-05-29 01:17:00,
2013-05-28 18:32:00,64.8,52.0,29.93,WNW,288,5.0,-999.0,64,-99.99,,,0.01,weatherlink.com 1.10,2013-05-29 01:32:00,
2013-05-28 18:47:00,64.4,52.0,29.92,WNW,296,6.0,-999.0,64,-99.99,,,0.01,weatherlink.com 1.10,2013-05-29 01:47:00,
2013-05-28 19:02:00,63.7,52.0,29.92,WNW,288,9.0,-999.0,65,-99.99,,,0.01,weatherlink.com 1.10,2013-05-29 02:02:00,
2013-05-28 19:17:00,62.8,51.0,29.93,WNW,301,12.0,-999.0,65,-99.99,,,0.01,weatherlink.com 1.10,2013-05-29 02:17:00,
2013-05-28 19:32:00,60.7,49.0,29.93,WNW,300,12.0,-999.0,66,-99.99,,,0.01,weatherlink.com 1.10,2013-05-29 02:32:00,
2013-05-28 19:47:00,60.9,50.0,29.93,WNW,288,0.0,-999.0,67,-99.99,,,0.01,weatherlink.com 1.10,2013-05-29 02:47:00,
2013-05-28 20:02:00,60.3,49.0,29.93,WNW,300,2.0,-999.0,66,-99.99,,,0.01,weatherlink.com 1.10,2013-05-29 03:02:00,
2013-05-28 20:17:00,59.9,48.0,29.93,South,188,0.0,-999.0,66,-99.99,,,0.01,weatherlink.com 1.10,2013-05-29 03:17:00,
2013-05-28 20:32:00,59.8,49.0,29.93,West,281,2.0,-999.0,67,-99.99,,,0.01,weatherlink.com 1.10,2013-05-29 03:32:00,
2013-05-28 20:47:00,60.1,49.0,29.93,WNW,286,0.0,-999.0,68,-99.99,,,0.01,weatherlink.com 1.10,2013-05-29 03:47:00,
2013-05-28 21:02:00,59.8,46.0,29.93,WNW,300,12.0,-999.0,60,-99.99,,,0.01,weatherlink.com 1.10,2013-05-29 04:02:00,
2013-05-28 21:17:00,59.3,46.0,29.93,West,269,7.0,-999.0,61,-99.99,,,0.01,weatherlink.com 1.10,2013-05-29 04:17:00,
2013-05-28 21:32:00,59.0,46.0,29.93,WNW,291,2.0,-999.0,62,-99.99,,,0.01,weatherlink.com 1.10,2013-05-29 04:32:00,
2013-05-28 21:47:00,58.5,50.0,29.92,SW,214,0.0,-999.0,73,-99.99,,,0.01,weatherlink.com 1.10,2013-05-29 04:47:00,
2013-05-28 22:02:00,57.9,50.0,29.92,SW,215,0.0,-999.0,76,-99.99,,,0.01,weatherlink.com 1.10,2013-05-29 05:02:00,
2013-05-28 22:17:00,57.7,51.0,29.92,SW,215,0.0,-999.0,77,-99.99,,,0.01,weatherlink.com 1.10,2013-05-29 05:17:00,
2013-05-28 22:32:00,57.6,51.0,29.94,SW,216,0.0,-999.0,78,-99.99,,,0.01,weatherlink.com 1.10,2013-05-29 05:32:00,
2013-05-28 22:47:00,57.3,48.0,29.96,East,90,2.0,-999.0,72,-99.99,,,0.01,weatherlink.com 1.10,2013-05-29 05:47:00,
2013-05-28 23:02:00,57.5,46.0,29.95,West,277,13.0,-999.0,66,-99.99,,,0.01,weatherlink.com 1.10,2013-05-29 06:02:00,
2013-05-28 23:17:00,57.8,46.0,29.95,NW,306,4.0,-999.0,64,-99.99,,,0.01,weatherlink.com 1.10,2013-05-29 06:17:00,
2013-05-28 23:32:00,57.8,48.0,29.94,WSW,257,0.0,-999.0,70,-99.99,,,0.01,weatherlink.com 1.10,2013-05-29 06:32:00,
2013-05-28 23:47:00,56.8,49.0,29.94,South,182,1.0,-999.0,75,-99.99,,,0.01,weatherlink.com 1.10,2013-05-29 06:47:00,